This is the latest recevied weather packets stored in our database for station/object IZ1UQG-N2. If no packets are shown the sender has not sent any weather packets the latest 10 day(s).
| Time | Temp. | Humidity | Pressure | Rain* | Wind** | Luminosity | Snow |
|---|---|---|---|---|---|---|---|
| 1787732660 | 23.89° C | 73% | 1015.5 hPa | 0 mm | - | 204 W/m² | - |
| 1787732600 | 23.89° C | 74% | 1015.7 hPa | 0 mm | - | 519 W/m² | - |
| 1787732540 | 23.33° C | 74% | 1015.6 hPa | 0 mm | - | 357 W/m² | - |
| 1787732480 | 23.33° C | 74% | 1015.5 hPa | 0 mm | - | 499 W/m² | - |
| 1787732420 | 23.33° C | 74% | 1015.6 hPa | 0 mm | - | 457 W/m² | - |
| 1787732361 | 23.33° C | 74% | 1015.5 hPa | 0 mm | - | 281 W/m² | - |
| 1787732301 | 23.33° C | 74% | 1015.6 hPa | 0 mm | - | 494 W/m² | - |
| 1787732241 | 23.33° C | 74% | 1015.6 hPa | 0 mm | - | 185 W/m² | - |
| 1787732180 | 23.33° C | 75% | 1015.6 hPa | 0 mm | - | 188 W/m² | - |
| 1787732120 | 23.89° C | 75% | 1015.6 hPa | 0 mm | - | 199 W/m² | - |
| 1787732060 | 23.33° C | 75% | 1015.7 hPa | 0 mm | - | 267 W/m² | - |
| 1787732000 | 23.33° C | 75% | 1015.7 hPa | 0 mm | - | 280 W/m² | - |
| 1787731940 | 23.33° C | 75% | 1015.6 hPa | 0 mm | - | 265 W/m² | - |
| 1787731879 | 23.33° C | 76% | 1015.7 hPa | 0 mm | - | 250 W/m² | - |
| 1787731821 | 23.33° C | 76% | 1015.7 hPa | 0 mm | - | 494 W/m² | - |
| 1787731761 | 23.33° C | 75% | 1015.7 hPa | 0 mm | - | 497 W/m² | - |
| 1787731701 | 23.33° C | 75% | 1015.7 hPa | 0 mm | - | 496 W/m² | - |
| 1787731640 | 23.33° C | 76% | 1015.7 hPa | 0 mm | - | 505 W/m² | - |
| 1787731580 | 23.33° C | 76% | 1015.7 hPa | 0 mm | - | 401 W/m² | - |
| 1787731520 | 23.33° C | 77% | 1015.8 hPa | 0 mm | - | 492 W/m² | - |
| 1787731459 | 23.33° C | 77% | 1015.7 hPa | 0 mm | - | 448 W/m² | - |
| 1787731399 | 22.78° C | 77% | 1015.8 hPa | 0 mm | - | 464 W/m² | - |
| 1787731339 | 22.78° C | 77% | 1015.7 hPa | 0 mm | - | 471 W/m² | - |
| 1787731281 | 22.78° C | 77% | 1015.7 hPa | 0 mm | - | 480 W/m² | - |
| 1787731221 | 22.78° C | 77% | 1015.7 hPa | 0 mm | - | 473 W/m² | - |
* Rain latest hour (hover to see other rain measurements)
** Current wind speed in m/s (hover to see current wind gust speed)